EW7502 Weather Reports


time (UTC)temp
C
wind
direction
speed
KPH
gust
KPH
rain 1hr
cm
rain 24hr
cm
rain mn
cm
humidity
%
barometer
mb
20260505124506 17 218 0.0 0.0 0.00 0.00 0.00 74 1010.7
20260505123002 15 195 0.0 0.0 0.00 0.00 0.00 85 1010.5
20260505121557 13 192 0.0 0.0 0.00 0.00 0.00 92 1010.7
20260505120109 12 209 0.0 0.0 0.00 0.00 0.00 92 1010.6
20260505114551 11 273 0.0 0.0 0.00 0.00 0.00 92 1010.6
20260505113050 10 273 0.0 0.0 0.00 0.00 0.00 92 1010.6
20260505111548 9 273 0.0 0.0 0.00 0.00 0.00 92 1010.5
20260505101541 8 211 0.0 0.0 0.00 0.00 0.00 91 1010.5
20260505100038 8 211 0.0 0.0 0.00 0.00 0.00 90 1010.2
20260505094536 8 211 0.0 0.0 0.00 0.00 0.00 90 1010.1
20260505093040 8 210 0.0 0.0 0.00 0.00 0.00 90 1009.9
20260505091535 8 210 0.0 0.0 0.00 0.00 0.00 90 1009.8
20260505090042 8 210 0.0 0.0 0.00 0.00 0.00 91 1009.8
20260505084534 8 210 0.0 0.0 0.00 0.00 0.00 90 1009.8
20260505083033 8 210 0.0 0.0 0.00 0.00 0.00 90 1009.8
20260505081538 8 210 0.0 0.0 0.00 0.00 0.00 89 1009.9
20260505080037 8 210 0.0 0.0 0.00 0.00 0.00 88 1010.0
20260505074529 8 210 0.0 0.0 0.00 0.00 0.00 87 1009.7
20260505073043 8 210 0.0 0.0 0.00 0.00 0.00 87 1009.7
20260505071525 8 210 0.0 0.0 0.00 0.00 0.00 86 1009.6
20260505070023 8 210 0.0 0.0 0.00 0.00 0.00 86 1009.7
20260505064535 9 210 0.0 0.0 0.00 0.00 0.00 85 1009.5
20260505063019 9 210 0.0 0.0 0.00 0.00 0.00 84 1009.6
20260505061529 10 210 0.0 0.0 0.00 0.00 0.00 83 1009.6
20260505060013 10 210 0.0 0.0 0.00 0.00 0.00 82 1009.6
20260505054511 10 210 0.0 0.0 0.00 0.00 0.00 81 1009.7
20260505053008 11 210 0.0 0.0 0.00 0.00 0.00 80 1009.8
20260505051507 11 210 0.0 0.0 0.00 0.00 0.00 79 1009.8
20260505041602 11 225 0.0 0.0 0.00 0.00 0.00 80 1009.8
20260505040057 11 229 0.0 0.0 0.00 0.00 0.00 80 1009.8
20260505034556 11 229 0.0 0.0 0.00 0.00 0.00 80 1009.9
20260505033055 11 188 0.0 0.0 0.00 0.00 0.00 79 1009.8
20260505031609 11 188 0.0 0.0 0.00 0.00 0.00 78 1010.0
20260505030054 11 187 0.0 0.0 0.00 0.00 0.00 77 1010.0
20260505024557 10 187 0.0 0.0 0.00 0.00 0.00 77 1010.1
20260505023111 10 189 0.0 0.0 0.00 0.00 0.00 76 1010.2
20260505021552 11 189 0.0 0.0 0.00 0.00 0.00 74 1010.2
20260505020053 11 198 0.0 0.0 0.00 0.00 0.00 72 1010.2
20260505014601 11 199 0.0 0.0 0.00 0.00 0.00 70 1010.2
20260505013105 12 199 0.0 0.0 0.00 0.00 0.00 68 1010.0
20260505011551 13 199 0.0 0.0 0.00 0.00 0.00 65 1009.8
20260505010049 14 199 0.0 0.0 0.00 0.00 0.00 61 1009.6
20260505004555 15 199 0.0 0.0 0.00 0.00 0.00 57 1009.4
20260505003048 17 199 0.0 0.0 0.00 0.00 0.00 52 1009.3
20260505001551 18 199 0.0 0.0 0.00 0.00 0.00 47 1009.2
20260505000105 18 199 0.0 0.0 0.00 0.00 0.00 44 1009.0
20260504234546 19 225 0.0 0.0 0.00 0.00 0.00 42 1008.9
20260504233148 20 225 0.0 0.0 0.00 0.00 0.00 40 1008.7
20260504231546 20 225 0.0 0.0 0.00 0.00 0.00 40 1008.6
20260504224544 21 241 0.0 0.0 0.00 0.00 0.00 37 1008.5
20260504223044 21 193 0.0 0.0 0.00 0.00 0.00 37 1008.6
20260504221554 21 162 0.0 0.0 0.00 0.00 0.00 37 1008.6
20260504220041 22 232 0.0 0.0 0.00 0.00 0.00 37 1008.7
20260504214540 22 236 0.0 0.0 0.00 0.00 0.00 35 1008.8
20260504213044 22 182 0.0 0.0 0.00 0.00 0.00 35 1008.8
20260504211544 22 173 0.0 0.0 0.00 0.00 0.00 36 1008.9
20260504210038 22 231 0.0 0.0 0.00 0.00 0.00 36 1009.0
20260504204539 23 164 0.0 0.0 0.00 0.00 0.00 33 1009.0
20260504203035 22 200 0.0 0.0 0.00 0.00 0.00 34 1008.9
20260504201533 22 182 0.0 0.0 0.00 0.00 0.00 34 1009.0
20260504200032 22 195 0.0 0.0 0.00 0.00 0.00 35 1009.0
20260504194531 23 227 0.0 0.0 0.00 0.00 0.00 33 1009.1
20260504193029 22 151 0.0 0.0 0.00 0.00 0.00 35 1009.2
20260504191527 22 193 0.0 0.0 0.00 0.00 0.00 34 1009.5
20260504190024 22 217 0.0 0.0 0.00 0.00 0.00 35 1009.8
20260504184522 22 165 0.0 0.0 0.00 0.00 0.00 34 1010.0
20260504183020 22 183 0.0 0.0 0.00 0.00 0.00 37 1010.2
20260504181518 22 235 0.0 0.0 0.00 0.00 0.00 34 1010.4
20260504180013 22 212 0.0 0.0 0.00 0.00 0.00 38 1010.6
20260504174511 21 204 0.0 0.0 0.00 0.00 0.00 37 1010.9
20260504173009 21 222 0.0 0.0 0.00 0.00 0.00 37 1010.9
20260504171507 21 173 0.0 0.0 0.00 0.00 0.00 37 1011.1